Regional Weather Roundup
Issued by NWS

Home | Current Version | Previous Version | Text Only | Print | Product List | Glossary On
Versions: 1 2 3 4 5 6 7 8 9 10 11 12 13 14 15 16 17 18 19 20 21 22 23 24 25 26 27 28 29 30 31 32 33 34 35 36 37 38 39 40 41 42 43 44 45 46 47 48 49 50
000
ASHW40 PHFO 241443
RWRHI

WEATHER ROUNDUP FOR HAWAII
NATIONAL WEATHER SERVICE HONOLULU HI
400 AM HST MON APR 24 2017

THIS IS AN AUTOMATED REPORT THAT HAS NOT BEEN QUALITY CONTROLLED.

NOTE..."FAIR" INDICATES FEW OR NO CLOUDS BELOW 12,000 FEET WITH NO
SIGNIFICANT WEATHER AND/OR OBSTRUCTIONS TO VISIBILITY.

* - THESE SITES REPORT LIMITED FIELDS

HIZ001>004-241500-
KAUAI-NIIHAU-

CITY           SKY/WX    TMP DP  RH WIND       PRES   REMARKS
LIHUE APT      PTCLDY    76  68  76 E12       30.04F
PORT ALLEN*      N/A     72 N/A N/A NE8         N/A
POIPU*           N/A     75 N/A N/A NE7G13      N/A
PRINCEVILLE*     N/A     70 N/A N/A SE3         N/A
KOKOLE POINT*  NOT AVBL
MOLOAA DAIRY*    N/A     72  66  83 E5          N/A
WAIMEA HTS*      N/A     70  57  64 NE3         N/A
PUU OPAE*      NOT AVBL
PUU LUA*       NOT AVBL
MAKAHA RIDGE*    N/A     64  57  77 CALM        N/A
$$

HIZ005>011-241500-
OAHU-

CITY           SKY/WX    TMP DP  RH WIND       PRES   REMARKS
HONOLULU       PTCLDY    75  64  68 NE5       30.03S
KALAELOA       CLEAR    N/A N/A N/A NE5       30.04S
KANEOHE MCB    NOT AVBL
WHEELER FIELD  FAIR      65  63  94 CALM      30.03F
BELLOWS*         N/A    N/A N/A N/A NE15        N/A
KAHUKU*          N/A    N/A N/A N/A NE9         N/A
WHEELER*         N/A    N/A N/A N/A NW1         N/A
WAIANAE HARBOR   N/A    N/A N/A N/A NE2         N/A
DILLINGHAM*      N/A     64  63  94 W1          N/A
KAHUKU TRN*      N/A     82  79  89 W7G18       N/A  HX  93
KAWAILOA*        N/A     70  63  78 E9G20       N/A
KII*             N/A     75  66  73 E15         N/A
MAKUA RANGE*     N/A    N/A N/A N/A NW3G9       N/A
OAHU FOREST NW NOT AVBL
SCHOFIELD BRK*   N/A     63  63 100 MISG        N/A
SCHOFIELD S*   NOT AVBL
WAIANAE VLY*   NOT AVBL
KUAOKALA*      NOT AVBL
HONOULIUULI*   NOT AVBL
MOKUOLOE IS*   NOT AVBL
PALEHUA*         N/A    N/A N/A N/A MISG        N/A
WAIAWA PHB*    NOT AVBL
$$

HIZ012>013-241500-
MOLOKAI-

CITY           SKY/WX    TMP DP  RH WIND       PRES   REMARKS
MOLOKAI AIRPT  CLOUDY    67  65  93 NE8G16    30.04S
KALAUPAPA      NOT AVBL
MAKAPULAPAI*     N/A     75  66  73 E16G23      N/A
MOLOKAI 1*     NOT AVBL
PUU ALII*        N/A     56  55  95 NE2G12      N/A
$$

HIZ016-241500-
KAHOOLAWE-

CITY           SKY/WX    TMP DP  RH WIND       PRES   REMARKS
KAHOOLAWE*     NOT AVBL
HAKIOAWA*        N/A     69  64  84 MISG      30.44S
HONOKANAIA*      N/A     76  62  61 NE12G21   29.96S
KANELOA*         N/A     72  63  73 NE16G26   30.08F
KEALIALALO*    NOT AVBL
LUA MAKIKA*    NOT AVBL
$$

HIZ014>015-241500-
LANAI-

CITY           SKY/WX    TMP DP  RH WIND       PRES   REMARKS
LANAI CITY     FAIR      66  63  90 NE10      30.07S
LANAI 1*       NOT AVBL
$$

HIZ017>028-241500-
MAUI-

CITY           SKY/WX    TMP DP  RH WIND       PRES   REMARKS
KAHULUI        MOCLDY    70  62  76 VRB5      30.01F
KAPALUA-W MAUI NOT AVBL
HANA AIRPORT   NOT AVBL
HANA*            N/A     73 N/A N/A SE3         N/A
HALEAKALA SUMM   N/A     39   9  28 E25G37      N/A  WCI  28
MAALAEA BAY*     N/A     73 N/A N/A N13G24      N/A
HALEAKALA*     NOT AVBL
KAUPO GAP*     NOT AVBL
KULA 1*          N/A     56  10  16 SE12G25     N/A
$$

HIZ023>026-241500-
BIG ISLAND OF HAWAII COAST AND LOWER SLOPES-

CITY           SKY/WX    TMP DP  RH WIND       PRES   REMARKS
KAILUA KONA    LGT RAIN  75  67  76 NE9       29.99S
HILO           CLEAR     66  57  72 SW8       30.04S
HONOKAA*         N/A     63 N/A N/A VRB1        N/A
KAWAIHAE MWT*    N/A     77 N/A N/A N3          N/A
KAWAIHAE*        N/A     79 N/A N/A CALM      30.00S
SOUTH POINT*     N/A     70 N/A N/A N15G21      N/A
UPOLU AIRPORT* NOT AVBL
KAMUELA*       MOSUNNY   57  55  94 NE7       30.11R
HAKALAU*         N/A    N/A N/A N/A SW6G13      N/A
KALOKO-HONOKO* NOT AVBL
PALI 2*          N/A     61  50  67 S14G20      N/A
KEALAKOMO*       N/A    N/A N/A N/A N10G16      N/A
KAUPULEHU*       N/A     66  57  72 SE8         N/A
KAPAPALA*        N/A     53  48  84 N7          N/A
LOWER KAHUKU*    N/A     57  52  82 N3G12       N/A
PUHE CS*         N/A     75  64  69 NW1         N/A
PUHO CS*         N/A     71  63  76 NE3         N/A
PTA KEAMUKU*     N/A     55  52  88 CALM        N/A
WAIKOLOA*        N/A     66  61  82 E5          N/A
$$

HIZ027>028-241500-
BIG ISLAND OF HAWAII INTERIOR AND SUMMMITS-

CITY           SKY/WX    TMP DP  RH WIND       PRES   REMARKS
BRADSHAW FIELD CLOUDY    57   8  14 SE13      30.29S
MK VISITOR CEN   N/A     43   5  21 E12         N/A
MAUNA KEA*       N/A     32 -22   9 E3          N/A
MAUNA LOA*     NOT AVBL
MAUNA LOA 1*   NOT AVBL
PTA KIPUKA*      N/A     48  48 100 E2          N/A
PTA RANGE 17*    N/A     66  12  12 SE12G26     N/A
PTA WEST*        N/A     70  66  88 E7          N/A
NENE CABIN*      N/A     50   9  18 NE7G13      N/A
AHUMOA*          N/A     46  34  61 E6          N/A
PTA PORTABLE*  NOT AVBL
PUU MALI*        N/A     48  37  66 S5G10       N/A
$$

HIC003-241500-
NORTHWEST ISLANDS-

CITY           SKY/WX    TMP DP  RH WIND       PRES   REMARKS
MIDWAY ISLAND  CLEAR     72 N/A N/A SW9       29.98F
MIDWAY NOS*      N/A     72 N/A N/A MISG      29.96F
FRENCH FRIGATE NOT AVBL
$$

PHZ110>124-180-241500-
BUOY REPORTS

STATION/POSITION TIME  TEMP    WIND        PRES    WAVE   SWELL
                       AIR SEA DIR/SP/G            HT/PER HT/DIR
                 (UTC) (F)     (DEG/KT/KT) (MB)    (FT/S) (FT/D)
BUOY 51001       1420   75 76  120/ 10/ 12 1017.1
BUOY 51101       1350   75 76  120/ 10/ 12 1017.6S   5/ 8   5/100
BUOY 51100       NOT AVBL
BUOY 51002       1420   78 79   80/ 19/ 23 1014.1
BUOY 51003       1350   78 79   90/ 10/ 12 1015.3F   6/11   7/120
BUOY 51004       1350      77   80/ 17/ 21 1014.9F   8/ 9   5/ 90
BARBERS PT BUOY  NOT AVBL
WAIMEA BAY BUOY  1402      77                N/A     4/10   2/ 10
KAILUA BAY BUOY  1404      78                N/A     6/11   2/ 20
LANAI BUOY       1415      78                N/A     3/11   2/230
BARBERS PT 2     NOT AVBL
PAUWELA MAUI     1409      77                N/A     6/10   2/350
HILO             1412      78                N/A     7/ 9   3/360
KANEOHE BAY BUOY 1425      78                N/A     5/11   2
HANALEI KAUAI    1422      77                N/A     5/11   2/350
KAHULUI HARBOR   1406   75 79   20/ 12/ 17 1016.4
HONOLULU HARBOR  1418   75 79   50/  1/  4 1017.6
KILO NALU        NOT AVBL
HILO HARBOR      1406   69 77  220/  6/  8 1017.0
MOKUOLOE         1336   76 78   70/  5/ 10 1017.4S
NAWILIWILI       1418   76      70/ 11/ 13 1016.8
WHOTS BUOY       NOT AVBL
BUOY 51028       NOT AVBL
$$

......................KEY........................................
  SKY/WX - SKY CONDITIONS/PRESENT WEATHER
  TMP    - TEMPERATURE IN FAHRENHEIT
  DWPT   - DEWPOINT IN FAHRENHEIT
  RH     - RELATIVE HUMIDITY IN PERCENT
  WIND   - DIRECTION AND SPEED /MPH FOR ISLANDS...KTS FOR BUOYS/
  PRES   - MEAN SEA LEVEL PRESSURE IN INCHES OF HG
  VSB    - VISIBILITY IN MILES
  HX     - HEAT INDEX
  WCI    - WIND CHILL INDEX
  VRB    - VARIABLE WIND DIRECTION
  N/A    - NOT AVAILABLE



USA.gov is the U.S. government's official web portal to all federal, state and local government web resources and services.